STARLINK-34246, 64769

Orbit data source: Space-Track

STARLINK-34246, 64769 is a payload satellite owned by SpaceX/Seattle (US) in LEO that was launched on Tue, 08 Jul 2025 UTC via an FALCON 9 launch vehicle from the Air Force Eastern Test Range (AFETR). Payload-class satellites include a variety of spacecraft equipped with specific instruments for various scientific and technological missions. These include communications satellites like Starlink; space stations such as the ISS; scientific satellites like the Hubble; Earth observation satellites from companies like Planet Labs, Umbra, and HawkEye 360; GPS; miniature CubeSats for education and research; and military/defense satellites.

Loading next visibility...
Identifier
64769, 2025-147Q
Orbit
LEO
Country
Flag of USUS
Related business
Manufacturer
SpaceX/Seattle
Mission
Operational Commercial Communications
Bus & Motor
STARLINK V2MO, Unknown motor
Mass
575 kg wet, ~530 kg dry
Launch date (UTC)
2025-07-08 (1 year ago)
Launch vehicle
FALCON 9
Launch site
Air Force Eastern Test Range (AFETR)
Object type
Payload
Rocket body
Debris
Shape & HBR
Box + 1 Pan, 17.7 m
Radar Cross Section
41.120 m², Large (>1 m²)

Expand to show TLE details & history
Last TLE update: 7 hours ago

TLE from 7 hours ago
0 STARLINK-34246
1 64769U 25147Q   26255.91293869  .00013926  00000-0  42250-3 0  9995
2 64769  53.1576  89.0640 0000913 139.1900 220.9172 15.34401344 67470
Epoch: 2026-09-12T21:54Z
TLE epoch observation values (Epoch: 2026-09-12T21:54:37.902Z)
Latitude
0.00004°
Longitude
128.49098°
Altitude
464.072 km
Speed
7.635 km/s
True Right ascension
05h 56m 15s
True Declination
0° 00' 00"
Sunlit
Object was in daylight at epoch
Visualization orbit readout
Latitude
Unknown
Longitude
Unknown
Altitude
Unknown
Speed
Unknown
Apparent Right ascension
Unknown
Apparent Declination
Unknown
Sunlit
N/A
Visualization observer readout
Local Sidereal Time
21:47:07
Azimuth
Unknown
Elevation
Unknown
Doppler factor
Unknown
Orbital elements
Apogee altitude
463.581 km
Perigee altitude
462.332 km
Semi-major axis
6,841.094 km
Eccentricity
0.00009
Inclination
53.1576°
RAAN
89.064°
Arg. of periapsis
139.19°
True anomaly
220.91035°
Mean anomaly
220.9172°
Eccentric anomaly
220.91377°
Mean motion
3.83579 °/min
Orbital period
93.85 mins
BSTAR
0.0004225
Loading maneuver chart data...
Computing Atmospheric mass density...
Loading historical data...
Loading historical data...
Loading historical data...
Loading historical data...
Loading historical data...
Loading historical data...
Loading historical data...

Documentation

Showing up to 5 results
|